Location: Amsterdam
(30.7274°N, 84.4357°W)
Time: 05:34:02
(UTC+00:00)

Explorer 11/Cluster Stage 4 - Pass Details

Date: 18 February 2026
Orbit: 463 x 1175 km, 28.8° (Epoch: 13 March)

Event Time Altitude Azimuth Distance (km) Brightness Sun altitude
Rises 18:05:43 0° 242° (WSW) 2,958 9.9 47.7°
Reaches altitude 10° 18:08:23 10° 235° (SW) 1,933 9.2 47.6°
Maximum altitude 18:12:28 38° 166° (SSE) 819 8.5 47.5°
Drops below altitude 10° 18:16:02 10° 97° (E) 1,678 8.4 47.4°
Sets 18:18:11 0° 89° (E) 2,513 9.1 47.4°
